Location: �quirre
(50.4736°N, 2.2351°E)
Time: 05:23:20
(UTC+00:00)

Cosmos 1707 - Pass Details

Date: 07 August 2020
Orbit: 515 x 531 km, 82.5° (Epoch: 19 September)

Event Time Altitude Azimuth Distance (km) Brightness Sun altitude
Rises 01:11:54 0° 345° (NNW) 2,688 7.2 -21.2°
Reaches altitude 10° 01:14:06 10° 340° (NNW) 1,793 6.1 -21.1°
Enters shadow 01:17:52 48° 268° (W) 701 3.1 -20.9°
